owner,sensor,date,latitude,longitude,mass_concentration_of_chlorophyll_in_sea_water,qcFlag 
SCCF RECON,ioos:station:SCCF:56:1,2017-09-01T00:00:00Z,26.4645,-82.1044,12.01,1111122 
SCCF RECON,ioos:station:SCCF:56:1,2017-09-01T01:00:00Z,26.4645,-82.1044,12.07,1111122 
SCCF RECON,ioos:station:SCCF:56:1,2017-09-01T02:00:00Z,26.4645,-82.1044,10.17,1111122 
SCCF RECON,ioos:station:SCCF:56:1,2017-09-01T03:00:00Z,26.4645,-82.1044,7.91,1111122 
SCCF RECON,ioos:station:SCCF:56:1,2017-09-01T04:00:00Z,26.4645,-82.1044,7.96,1111122 
SCCF RECON,ioos:station:SCCF:56:1,2017-09-01T05:00:00Z,26.4645,-82.1044,7.47,1111122 
SCCF RECON,ioos:station:SCCF:56:1,2017-09-01T06:00:00Z,26.4645,-82.1044,7.8,1111122 
SCCF RECON,ioos:station:SCCF:56:1,2017-09-01T07:00:00Z,26.4645,-82.1044,6.9,1111122 
SCCF RECON,ioos:station:SCCF:56:1,2017-09-01T08:00:00Z,26.4645,-82.1044,7.33,1111122 
SCCF RECON,ioos:station:SCCF:56:1,2017-09-01T09:00:00Z,26.4645,-82.1044,7.86,1111122 
SCCF RECON,ioos:station:SCCF:56:1,2017-09-01T10:00:00Z,26.4645,-82.1044,8.39,1111122 
SCCF RECON,ioos:station:SCCF:56:1,2017-09-01T11:00:00Z,26.4645,-82.1044,8.64,1111122 
SCCF RECON,ioos:station:SCCF:56:1,2017-09-01T12:00:00Z,26.4645,-82.1044,7.95,1111122 
SCCF RECON,ioos:station:SCCF:56:1,2017-09-01T13:00:00Z,26.4645,-82.1044,11.4,1111122 
SCCF RECON,ioos:station:SCCF:56:1,2017-09-01T14:00:00Z,26.4645,-82.1044,10.93,1111122 
SCCF RECON,ioos:station:SCCF:56:1,2017-09-01T15:00:00Z,26.4645,-82.1044,8.97,1111122 
SCCF RECON,ioos:station:SCCF:56:1,2017-09-01T16:00:00Z,26.4645,-82.1044,8.88,1111122 
SCCF RECON,ioos:station:SCCF:56:1,2017-09-01T17:00:00Z,26.4645,-82.1044,7.67,1111122 
SCCF RECON,ioos:station:SCCF:56:1,2017-09-01T18:00:00Z,26.4645,-82.1044,7.49,1111122 
SCCF RECON,ioos:station:SCCF:56:1,2017-09-01T19:00:00Z,26.4645,-82.1044,7.62,1111122 
SCCF RECON,ioos:station:SCCF:56:1,2017-09-01T20:00:00Z,26.4645,-82.1044,7.89,1111122 
SCCF RECON,ioos:station:SCCF:56:1,2017-09-01T21:00:00Z,26.4645,-82.1044,8.39,1111122 
SCCF RECON,ioos:station:SCCF:56:1,2017-09-01T22:00:00Z,26.4645,-82.1044,9.29,1111122 
SCCF RECON,ioos:station:SCCF:56:1,2017-09-01T23:00:00Z,26.4645,-82.1044,10.76,1111122 
SCCF RECON,ioos:station:SCCF:56:1,2017-09-02T00:00:00Z,26.4645,-82.1044,11.43,1111122 
SCCF RECON,ioos:station:SCCF:56:1,2017-09-02T01:00:00Z,26.4645,-82.1044,9.98,1111122 
SCCF RECON,ioos:station:SCCF:56:1,2017-09-02T02:00:00Z,26.4645,-82.1044,8.73,1111122 
SCCF RECON,ioos:station:SCCF:56:1,2017-09-02T03:00:00Z,26.4645,-82.1044,8.61,1111122 
SCCF RECON,ioos:station:SCCF:56:1,2017-09-02T04:00:00Z,26.4645,-82.1044,7.65,1111122 
SCCF RECON,ioos:station:SCCF:56:1,2017-09-02T05:00:00Z,26.4645,-82.1044,7.2,1111122 
SCCF RECON,ioos:station:SCCF:56:1,2017-09-02T06:00:00Z,26.4645,-82.1044,6.76,1111122 
SCCF RECON,ioos:station:SCCF:56:1,2017-09-02T07:00:00Z,26.4645,-82.1044,6.78,1111122 
SCCF RECON,ioos:station:SCCF:56:1,2017-09-02T08:00:00Z,26.4645,-82.1044,6.07,1111122 
SCCF RECON,ioos:station:SCCF:56:1,2017-09-02T09:00:00Z,26.4645,-82.1044,6.01,1111122 
SCCF RECON,ioos:station:SCCF:56:1,2017-09-02T10:00:00Z,26.4645,-82.1044,6.64,1111122 
SCCF RECON,ioos:station:SCCF:56:1,2017-09-02T11:00:00Z,26.4645,-82.1044,6.0,1111122 
SCCF RECON,ioos:station:SCCF:56:1,2017-09-02T12:00:00Z,26.4645,-82.1044,7.12,1111122 
SCCF RECON,ioos:station:SCCF:56:1,2017-09-02T13:00:00Z,26.4645,-82.1044,7.44,1111122 
SCCF RECON,ioos:station:SCCF:56:1,2017-09-02T14:00:00Z,26.4645,-82.1044,7.71,1111122 
SCCF RECON,ioos:station:SCCF:56:1,2017-09-02T15:00:00Z,26.4645,-82.1044,7.4,1111122 
SCCF RECON,ioos:station:SCCF:56:1,2017-09-02T16:00:00Z,26.4645,-82.1044,8.02,1111122 
SCCF RECON,ioos:station:SCCF:56:1,2017-09-02T17:00:00Z,26.4645,-82.1044,6.81,1111122 
SCCF RECON,ioos:station:SCCF:56:1,2017-09-02T18:00:00Z,26.4645,-82.1044,6.71,1111122 
SCCF RECON,ioos:station:SCCF:56:1,2017-09-02T19:00:00Z,26.4645,-82.1044,6.69,1111122 
SCCF RECON,ioos:station:SCCF:56:1,2017-09-02T20:00:00Z,26.4645,-82.1044,6.86,1111122 
SCCF RECON,ioos:station:SCCF:56:1,2017-09-02T21:00:00Z,26.4645,-82.1044,7.18,1111122 
SCCF RECON,ioos:station:SCCF:56:1,2017-09-02T22:00:00Z,26.4645,-82.1044,7.84,1111122 
SCCF RECON,ioos:station:SCCF:56:1,2017-09-02T23:00:00Z,26.4645,-82.1044,8.49,1111122 
SCCF RECON,ioos:station:SCCF:56:1,2017-09-03T00:00:00Z,26.4645,-82.1044,8.18,1111122 
SCCF RECON,ioos:station:SCCF:56:1,2017-09-03T01:00:00Z,26.4645,-82.1044,8.51,1111122 
SCCF RECON,ioos:station:SCCF:56:1,2017-09-03T02:00:00Z,26.4645,-82.1044,9.35,1111122 
SCCF RECON,ioos:station:SCCF:56:1,2017-09-03T03:00:00Z,26.4645,-82.1044,8.33,1111122 
SCCF RECON,ioos:station:SCCF:56:1,2017-09-03T04:00:00Z,26.4645,-82.1044,7.68,1111122 
SCCF RECON,ioos:station:SCCF:56:1,2017-09-03T05:00:00Z,26.4645,-82.1044,7.34,1111122 
SCCF RECON,ioos:station:SCCF:56:1,2017-09-03T06:00:00Z,26.4645,-82.1044,7.6,1111122 
SCCF RECON,ioos:station:SCCF:56:1,2017-09-03T07:00:00Z,26.4645,-82.1044,6.46,1111122 
SCCF RECON,ioos:station:SCCF:56:1,2017-09-03T08:00:00Z,26.4645,-82.1044,6.26,1111122 
SCCF RECON,ioos:station:SCCF:56:1,2017-09-03T09:00:00Z,26.4645,-82.1044,6.36,1111122 
SCCF RECON,ioos:station:SCCF:56:1,2017-09-03T10:00:00Z,26.4645,-82.1044,6.03,1111122 
SCCF RECON,ioos:station:SCCF:56:1,2017-09-03T11:00:00Z,26.4645,-82.1044,6.31,1111122 
SCCF RECON,ioos:station:SCCF:56:1,2017-09-03T12:00:00Z,26.4645,-82.1044,6.57,1111122 
SCCF RECON,ioos:station:SCCF:56:1,2017-09-03T13:00:00Z,26.4645,-82.1044,5.82,1111122 
SCCF RECON,ioos:station:SCCF:56:1,2017-09-03T14:00:00Z,26.4645,-82.1044,5.7,1111122 
SCCF RECON,ioos:station:SCCF:56:1,2017-09-03T15:00:00Z,26.4645,-82.1044,6.49,1111122 
SCCF RECON,ioos:station:SCCF:56:1,2017-09-03T16:00:00Z,26.4645,-82.1044,7.01,1111122 
SCCF RECON,ioos:station:SCCF:56:1,2017-09-03T17:00:00Z,26.4645,-82.1044,6.16,1111122 
SCCF RECON,ioos:station:SCCF:56:1,2017-09-03T18:00:00Z,26.4645,-82.1044,6.49,1111122 
SCCF RECON,ioos:station:SCCF:56:1,2017-09-03T19:00:00Z,26.4645,-82.1044,7.05,1111122 
SCCF RECON,ioos:station:SCCF:56:1,2017-09-03T20:00:00Z,26.4645,-82.1044,7.25,1111122 
SCCF RECON,ioos:station:SCCF:56:1,2017-09-03T21:00:00Z,26.4645,-82.1044,7.69,1111122 
SCCF RECON,ioos:station:SCCF:56:1,2017-09-03T22:00:00Z,26.4645,-82.1044,8.09,1111122 
SCCF RECON,ioos:station:SCCF:56:1,2017-09-03T23:00:00Z,26.4645,-82.1044,7.82,1111122 
SCCF RECON,ioos:station:SCCF:56:1,2017-09-04T00:00:00Z,26.4645,-82.1044,8.11,1111122 
SCCF RECON,ioos:station:SCCF:56:1,2017-09-04T01:00:00Z,26.4645,-82.1044,7.71,1111122 
SCCF RECON,ioos:station:SCCF:56:1,2017-09-04T02:00:00Z,26.4645,-82.1044,7.7,1111122 
SCCF RECON,ioos:station:SCCF:56:1,2017-09-04T03:00:00Z,26.4645,-82.1044,7.68,1111122 
SCCF RECON,ioos:station:SCCF:56:1,2017-09-04T04:00:00Z,26.4645,-82.1044,7.31,1111122 
SCCF RECON,ioos:station:SCCF:56:1,2017-09-04T05:00:00Z,26.4645,-82.1044,6.77,1111122 
SCCF RECON,ioos:station:SCCF:56:1,2017-09-04T06:00:00Z,26.4645,-82.1044,6.58,1111122 
SCCF RECON,ioos:station:SCCF:56:1,2017-09-04T07:00:00Z,26.4645,-82.1044,6.52,1111122 
SCCF RECON,ioos:station:SCCF:56:1,2017-09-04T08:00:00Z,26.4645,-82.1044,6.31,1111122 
SCCF RECON,ioos:station:SCCF:56:1,2017-09-04T09:00:00Z,26.4645,-82.1044,6.24,1111122 
SCCF RECON,ioos:station:SCCF:56:1,2017-09-04T10:00:00Z,26.4645,-82.1044,6.08,1111122 
SCCF RECON,ioos:station:SCCF:56:1,2017-09-04T11:00:00Z,26.4645,-82.1044,5.87,1111122 
SCCF RECON,ioos:station:SCCF:56:1,2017-09-04T12:00:00Z,26.4645,-82.1044,5.89,1111122 
SCCF RECON,ioos:station:SCCF:56:1,2017-09-04T13:00:00Z,26.4645,-82.1044,5.98,1111122 
SCCF RECON,ioos:station:SCCF:56:1,2017-09-04T14:00:00Z,26.4645,-82.1044,5.66,1111122 
SCCF RECON,ioos:station:SCCF:56:1,2017-09-04T15:00:00Z,26.4645,-82.1044,6.81,1111122 
SCCF RECON,ioos:station:SCCF:56:1,2017-09-04T16:00:00Z,26.4645,-82.1044,7.42,1111122 
SCCF RECON,ioos:station:SCCF:56:1,2017-09-04T17:00:00Z,26.4645,-82.1044,7.7,1111122 
SCCF RECON,ioos:station:SCCF:56:1,2017-09-04T18:00:00Z,26.4645,-82.1044,7.33,1111122 
SCCF RECON,ioos:station:SCCF:56:1,2017-09-04T19:00:00Z,26.4645,-82.1044,7.58,1111122 
SCCF RECON,ioos:station:SCCF:56:1,2017-09-04T20:00:00Z,26.4645,-82.1044,7.91,1111122 
SCCF RECON,ioos:station:SCCF:56:1,2017-09-04T21:00:00Z,26.4645,-82.1044,7.79,1111122 
SCCF RECON,ioos:station:SCCF:56:1,2017-09-04T22:00:00Z,26.4645,-82.1044,7.91,1111122 
SCCF RECON,ioos:station:SCCF:56:1,2017-09-04T23:00:00Z,26.4645,-82.1044,8.07,1111122 
SCCF RECON,ioos:station:SCCF:56:1,2017-09-05T00:00:00Z,26.4645,-82.1044,7.81,1111122 
SCCF RECON,ioos:station:SCCF:56:1,2017-09-05T01:00:00Z,26.4645,-82.1044,7.86,1111122 
SCCF RECON,ioos:station:SCCF:56:1,2017-09-05T02:00:00Z,26.4645,-82.1044,8.14,1111122 
SCCF RECON,ioos:station:SCCF:56:1,2017-09-05T03:00:00Z,26.4645,-82.1044,8.1,1111122 
SCCF RECON,ioos:station:SCCF:56:1,2017-09-05T04:00:00Z,26.4645,-82.1044,8.82,1111122 
SCCF RECON,ioos:station:SCCF:56:1,2017-09-05T05:00:00Z,26.4645,-82.1044,9.41,1111122 
SCCF RECON,ioos:station:SCCF:56:1,2017-09-05T06:00:00Z,26.4645,-82.1044,8.46,1111122 
SCCF RECON,ioos:station:SCCF:56:1,2017-09-05T07:00:00Z,26.4645,-82.1044,8.36,1111122 
SCCF RECON,ioos:station:SCCF:56:1,2017-09-05T08:00:00Z,26.4645,-82.1044,7.49,1111122 
SCCF RECON,ioos:station:SCCF:56:1,2017-09-05T09:00:00Z,26.4645,-82.1044,7.33,1111122 
SCCF RECON,ioos:station:SCCF:56:1,2017-09-05T10:00:00Z,26.4645,-82.1044,6.83,1111122 
SCCF RECON,ioos:station:SCCF:56:1,2017-09-05T11:00:00Z,26.4645,-82.1044,6.27,1111122 
SCCF RECON,ioos:station:SCCF:56:1,2017-09-05T12:00:00Z,26.4645,-82.1044,6.32,1111122 
SCCF RECON,ioos:station:SCCF:56:1,2017-09-05T13:00:00Z,26.4645,-82.1044,6.59,1111122 
SCCF RECON,ioos:station:SCCF:56:1,2017-09-05T14:00:00Z,26.4645,-82.1044,7.42,1111122 
SCCF RECON,ioos:station:SCCF:56:1,2017-09-05T15:00:00Z,26.4645,-82.1044,7.5,1111122 
SCCF RECON,ioos:station:SCCF:56:1,2017-09-05T16:00:00Z,26.4645,-82.1044,7.69,1111122 
SCCF RECON,ioos:station:SCCF:56:1,2017-09-05T17:00:00Z,26.4645,-82.1044,7.96,1111122 
SCCF RECON,ioos:station:SCCF:56:1,2017-09-05T18:00:00Z,26.4645,-82.1044,8.03,1111122 
SCCF RECON,ioos:station:SCCF:56:1,2017-09-05T19:00:00Z,26.4645,-82.1044,8.18,1111122 
SCCF RECON,ioos:station:SCCF:56:1,2017-09-05T20:00:00Z,26.4645,-82.1044,8.36,1111122 
SCCF RECON,ioos:station:SCCF:56:1,2017-09-05T21:00:00Z,26.4645,-82.1044,8.32,1111122 
SCCF RECON,ioos:station:SCCF:56:1,2017-09-05T22:00:00Z,26.4645,-82.1044,7.99,1111122 
SCCF RECON,ioos:station:SCCF:56:1,2017-09-05T23:00:00Z,26.4645,-82.1044,8.03,1111122 
SCCF RECON,ioos:station:SCCF:56:1,2017-09-06T00:00:00Z,26.4645,-82.1044,7.82,1111122 
SCCF RECON,ioos:station:SCCF:56:1,2017-09-06T01:00:00Z,26.4645,-82.1044,8.04,1111122 
SCCF RECON,ioos:station:SCCF:56:1,2017-09-06T02:00:00Z,26.4645,-82.1044,8.66,1111122 
SCCF RECON,ioos:station:SCCF:56:1,2017-09-06T03:00:00Z,26.4645,-82.1044,9.17,1111122 
SCCF RECON,ioos:station:SCCF:56:1,2017-09-06T04:00:00Z,26.4645,-82.1044,9.81,1111122 
SCCF RECON,ioos:station:SCCF:56:1,2017-09-06T05:00:00Z,26.4645,-82.1044,9.34,1111122 
SCCF RECON,ioos:station:SCCF:56:1,2017-09-06T06:00:00Z,26.4645,-82.1044,8.84,1111122 
SCCF RECON,ioos:station:SCCF:56:1,2017-09-06T07:00:00Z,26.4645,-82.1044,7.52,1111122 
SCCF RECON,ioos:station:SCCF:56:1,2017-09-06T08:00:00Z,26.4645,-82.1044,8.1,1111122 
SCCF RECON,ioos:station:SCCF:56:1,2017-09-06T09:00:00Z,26.4645,-82.1044,7.26,1111122 
SCCF RECON,ioos:station:SCCF:56:1,2017-09-06T10:00:00Z,26.4645,-82.1044,6.82,1111122 
SCCF RECON,ioos:station:SCCF:56:1,2017-09-06T11:00:00Z,26.4645,-82.1044,6.11,1111122 
SCCF RECON,ioos:station:SCCF:56:1,2017-09-06T12:00:00Z,26.4645,-82.1044,6.2,1111122 
SCCF RECON,ioos:station:SCCF:56:1,2017-09-06T13:00:00Z,26.4645,-82.1044,6.39,1111122 
SCCF RECON,ioos:station:SCCF:56:1,2017-09-06T14:00:00Z,26.4645,-82.1044,7.71,1111122 
SCCF RECON,ioos:station:SCCF:56:1,2017-09-06T15:00:00Z,26.4645,-82.1044,7.91,1111122 
SCCF RECON,ioos:station:SCCF:56:1,2017-09-06T16:00:00Z,26.4645,-82.1044,8.14,1111122 
SCCF RECON,ioos:station:SCCF:56:1,2017-09-06T17:00:00Z,26.4645,-82.1044,8.2,1111122 
SCCF RECON,ioos:station:SCCF:56:1,2017-09-06T18:00:00Z,26.4645,-82.1044,8.65,1111122 
SCCF RECON,ioos:station:SCCF:56:1,2017-09-06T19:00:00Z,26.4645,-82.1044,7.88,1111122 
SCCF RECON,ioos:station:SCCF:56:1,2017-09-06T20:00:00Z,26.4645,-82.1044,8.32,1111122 
SCCF RECON,ioos:station:SCCF:56:1,2017-09-06T21:00:00Z,26.4645,-82.1044,8.59,1111122 
SCCF RECON,ioos:station:SCCF:56:1,2017-09-06T22:00:00Z,26.4645,-82.1044,8.27,1111122 
SCCF RECON,ioos:station:SCCF:56:1,2017-09-06T23:00:00Z,26.4645,-82.1044,8.02,1111122 
SCCF RECON,ioos:station:SCCF:56:1,2017-09-07T00:00:00Z,26.4645,-82.1044,8.12,1111122 
SCCF RECON,ioos:station:SCCF:56:1,2017-09-07T01:00:00Z,26.4645,-82.1044,7.59,1111122 
SCCF RECON,ioos:station:SCCF:56:1,2017-09-07T02:00:00Z,26.4645,-82.1044,7.84,1111122 
SCCF RECON,ioos:station:SCCF:56:1,2017-09-07T03:00:00Z,26.4645,-82.1044,8.96,1111122 
SCCF RECON,ioos:station:SCCF:56:1,2017-09-07T04:00:00Z,26.4645,-82.1044,9.24,1111122 
SCCF RECON,ioos:station:SCCF:56:1,2017-09-07T05:00:00Z,26.4645,-82.1044,8.83,1111122 
SCCF RECON,ioos:station:SCCF:56:1,2017-09-07T06:00:00Z,26.4645,-82.1044,8.89,1111122 
SCCF RECON,ioos:station:SCCF:56:1,2017-09-07T07:00:00Z,26.4645,-82.1044,7.89,1111122 
SCCF RECON,ioos:station:SCCF:56:1,2017-09-07T08:00:00Z,26.4645,-82.1044,7.13,1111122 
SCCF RECON,ioos:station:SCCF:56:1,2017-09-07T09:00:00Z,26.4645,-82.1044,6.6,1111122 
SCCF RECON,ioos:station:SCCF:56:1,2017-09-07T10:00:00Z,26.4645,-82.1044,6.02,1111122 
SCCF RECON,ioos:station:SCCF:56:1,2017-09-07T11:00:00Z,26.4645,-82.1044,5.4,1111122 
SCCF RECON,ioos:station:SCCF:56:1,2017-09-07T12:00:00Z,26.4645,-82.1044,4.96,1111122 
SCCF RECON,ioos:station:SCCF:56:1,2017-09-07T13:00:00Z,26.4645,-82.1044,4.81,1111122 
SCCF RECON,ioos:station:SCCF:56:1,2017-09-07T14:00:00Z,26.4645,-82.1044,4.68,1111122 
SCCF RECON,ioos:station:SCCF:56:1,2017-09-07T15:00:00Z,26.4645,-82.1044,5.46,1111122 
SCCF RECON,ioos:station:SCCF:56:1,2017-09-07T16:00:00Z,26.4645,-82.1044,6.53,1111122 
SCCF RECON,ioos:station:SCCF:56:1,2017-09-07T17:00:00Z,26.4645,-82.1044,6.86,1111122 
SCCF RECON,ioos:station:SCCF:56:1,2017-09-07T18:00:00Z,26.4645,-82.1044,7.15,1111122 
SCCF RECON,ioos:station:SCCF:56:1,2017-09-07T19:00:00Z,26.4645,-82.1044,6.78,1111122 
SCCF RECON,ioos:station:SCCF:56:1,2017-09-07T20:00:00Z,26.4645,-82.1044,7.0,1111122 
SCCF RECON,ioos:station:SCCF:56:1,2017-09-07T21:00:00Z,26.4645,-82.1044,7.47,1111122 
SCCF RECON,ioos:station:SCCF:56:1,2017-09-07T22:00:00Z,26.4645,-82.1044,7.54,1111122 
SCCF RECON,ioos:station:SCCF:56:1,2017-09-07T23:00:00Z,26.4645,-82.1044,7.32,1111122 
SCCF RECON,ioos:station:SCCF:56:1,2017-09-08T00:00:00Z,26.4645,-82.1044,7.32,1111122 
SCCF RECON,ioos:station:SCCF:56:1,2017-09-08T01:00:00Z,26.4645,-82.1044,6.97,1111122 
SCCF RECON,ioos:station:SCCF:56:1,2017-09-08T02:00:00Z,26.4645,-82.1044,6.83,1111122 
SCCF RECON,ioos:station:SCCF:56:1,2017-09-08T03:00:00Z,26.4645,-82.1044,6.65,1111122 
SCCF RECON,ioos:station:SCCF:56:1,2017-09-08T04:00:00Z,26.4645,-82.1044,8.53,1111122 
SCCF RECON,ioos:station:SCCF:56:1,2017-09-08T05:00:00Z,26.4645,-82.1044,9.3,1111122 
SCCF RECON,ioos:station:SCCF:56:1,2017-09-08T06:00:00Z,26.4645,-82.1044,9.71,1111122 
SCCF RECON,ioos:station:SCCF:56:1,2017-09-08T07:00:00Z,26.4645,-82.1044,8.83,1111122 
SCCF RECON,ioos:station:SCCF:56:1,2017-09-08T08:00:00Z,26.4645,-82.1044,8.93,1111122 
SCCF RECON,ioos:station:SCCF:56:1,2017-09-08T09:00:00Z,26.4645,-82.1044,7.81,1111122 
SCCF RECON,ioos:station:SCCF:56:1,2017-09-08T10:00:00Z,26.4645,-82.1044,6.88,1111122 
SCCF RECON,ioos:station:SCCF:56:1,2017-09-08T11:00:00Z,26.4645,-82.1044,5.75,1111122 
SCCF RECON,ioos:station:SCCF:56:1,2017-09-08T12:00:00Z,26.4645,-82.1044,5.15,1111122 
SCCF RECON,ioos:station:SCCF:56:1,2017-09-08T13:00:00Z,26.4645,-82.1044,4.76,1111122 
SCCF RECON,ioos:station:SCCF:56:1,2017-09-08T14:00:00Z,26.4645,-82.1044,4.93,1111122 
SCCF RECON,ioos:station:SCCF:56:1,2017-09-08T15:00:00Z,26.4645,-82.1044,4.83,1111122 
SCCF RECON,ioos:station:SCCF:56:1,2017-09-08T16:00:00Z,26.4645,-82.1044,6.61,1111122 
SCCF RECON,ioos:station:SCCF:56:1,2017-09-08T17:00:00Z,26.4645,-82.1044,7.8,1111122 
SCCF RECON,ioos:station:SCCF:56:1,2017-09-08T18:00:00Z,26.4645,-82.1044,8.88,1111122 
SCCF RECON,ioos:station:SCCF:56:1,2017-09-08T19:00:00Z,26.4645,-82.1044,9.06,1111122 
SCCF RECON,ioos:station:SCCF:56:1,2017-09-08T20:00:00Z,26.4645,-82.1044,9.62,1111122 
SCCF RECON,ioos:station:SCCF:56:1,2017-09-08T21:00:00Z,26.4645,-82.1044,8.98,1111122 
SCCF RECON,ioos:station:SCCF:56:1,2017-09-08T22:00:00Z,26.4645,-82.1044,8.37,1111122 
SCCF RECON,ioos:station:SCCF:56:1,2017-09-08T23:00:00Z,26.4645,-82.1044,7.5,1111122 
SCCF RECON,ioos:station:SCCF:56:1,2017-09-09T00:00:00Z,26.4645,-82.1044,7.37,1111122 
SCCF RECON,ioos:station:SCCF:56:1,2017-09-09T01:00:00Z,26.4645,-82.1044,6.82,1111122 
SCCF RECON,ioos:station:SCCF:56:1,2017-09-09T02:00:00Z,26.4645,-82.1044,6.2,1111122 
SCCF RECON,ioos:station:SCCF:56:1,2017-09-09T03:00:00Z,26.4645,-82.1044,6.32,1111122 
SCCF RECON,ioos:station:SCCF:56:1,2017-09-09T04:00:00Z,26.4645,-82.1044,10.16,1111122 
SCCF RECON,ioos:station:SCCF:56:1,2017-09-09T05:00:00Z,26.4645,-82.1044,10.11,1111122 
SCCF RECON,ioos:station:SCCF:56:1,2017-09-09T06:00:00Z,26.4645,-82.1044,9.33,1111122 
SCCF RECON,ioos:station:SCCF:56:1,2017-09-09T07:00:00Z,26.4645,-82.1044,9.2,1111122 
SCCF RECON,ioos:station:SCCF:56:1,2017-09-09T08:00:00Z,26.4645,-82.1044,9.09,1111122 
SCCF RECON,ioos:station:SCCF:56:1,2017-09-09T09:00:00Z,26.4645,-82.1044,7.14,1111122 
SCCF RECON,ioos:station:SCCF:56:1,2017-09-09T10:00:00Z,26.4645,-82.1044,6.49,1111122 
SCCF RECON,ioos:station:SCCF:56:1,2017-09-09T11:00:00Z,26.4645,-82.1044,5.71,1111122 
SCCF RECON,ioos:station:SCCF:56:1,2017-09-09T12:00:00Z,26.4645,-82.1044,5.04,1111122 
SCCF RECON,ioos:station:SCCF:56:1,2017-09-09T13:00:00Z,26.4645,-82.1044,4.88,1111122 
SCCF RECON,ioos:station:SCCF:56:1,2017-09-09T14:00:00Z,26.4645,-82.1044,4.79,1111122 
SCCF RECON,ioos:station:SCCF:56:1,2017-09-09T15:00:00Z,26.4645,-82.1044,5.03,1111122 
SCCF RECON,ioos:station:SCCF:56:1,2017-09-09T16:00:00Z,26.4645,-82.1044,7.01,1111122 
SCCF RECON,ioos:station:SCCF:56:1,2017-09-09T17:00:00Z,26.4645,-82.1044,8.73,1111122 
SCCF RECON,ioos:station:SCCF:56:1,2017-09-09T18:00:00Z,26.4645,-82.1044,8.88,1111122 
SCCF RECON,ioos:station:SCCF:56:1,2017-09-09T19:00:00Z,26.4645,-82.1044,10.05,1111122 
SCCF RECON,ioos:station:SCCF:56:1,2017-09-09T20:00:00Z,26.4645,-82.1044,11.29,1111122 
SCCF RECON,ioos:station:SCCF:56:1,2017-09-09T21:00:00Z,26.4645,-82.1044,11.55,1111122 
SCCF RECON,ioos:station:SCCF:56:1,2017-09-09T22:00:00Z,26.4645,-82.1044,9.77,1111122 
SCCF RECON,ioos:station:SCCF:56:1,2017-09-09T23:00:00Z,26.4645,-82.1044,8.57,1111122 
SCCF RECON,ioos:station:SCCF:56:1,2017-09-10T00:00:00Z,26.4645,-82.1044,7.73,1111122 
SCCF RECON,ioos:station:SCCF:56:1,2017-09-10T01:00:00Z,26.4645,-82.1044,6.76,1111122 
SCCF RECON,ioos:station:SCCF:56:1,2017-09-10T02:00:00Z,26.4645,-82.1044,6.21,1111122 
SCCF RECON,ioos:station:SCCF:56:1,2017-09-10T03:00:00Z,26.4645,-82.1044,5.94,1111122 
SCCF RECON,ioos:station:SCCF:56:1,2017-09-10T04:00:00Z,26.4645,-82.1044,5.91,1111122 
SCCF RECON,ioos:station:SCCF:56:1,2017-09-10T05:00:00Z,26.4645,-82.1044,6.83,1111122 
SCCF RECON,ioos:station:SCCF:56:1,2017-09-10T06:00:00Z,26.4645,-82.1044,6.45,1111122 
SCCF RECON,ioos:station:SCCF:56:1,2017-09-10T07:00:00Z,26.4645,-82.1044,9.74,1111122 
SCCF RECON,ioos:station:SCCF:56:1,2017-09-10T08:00:00Z,26.4645,-82.1044,10.44,1111122 
SCCF RECON,ioos:station:SCCF:56:1,2017-09-10T09:00:00Z,26.4645,-82.1044,10.16,1111122 
SCCF RECON,ioos:station:SCCF:56:1,2017-09-10T10:00:00Z,26.4645,-82.1044,7.75,1111122 
SCCF RECON,ioos:station:SCCF:56:1,2017-09-10T11:00:00Z,26.4645,-82.1044,5.96,1111122 
SCCF RECON,ioos:station:SCCF:56:1,2017-09-10T12:00:00Z,26.4645,-82.1044,5.55,1111122 
SCCF RECON,ioos:station:SCCF:56:1,2017-09-10T13:00:00Z,26.4645,-82.1044,5.95,1111122 
SCCF RECON,ioos:station:SCCF:56:1,2017-09-10T14:00:00Z,26.4645,-82.1044,7.23,1111122 
SCCF RECON,ioos:station:SCCF:56:1,2017-09-10T15:00:00Z,26.4645,-82.1044,7.42,1111122 
SCCF RECON,ioos:station:SCCF:56:1,2017-09-10T16:00:00Z,26.4645,-82.1044,7.55,1111122 
SCCF RECON,ioos:station:SCCF:56:1,2017-09-10T17:00:00Z,26.4645,-82.1044,7.83,1111122 
SCCF RECON,ioos:station:SCCF:56:1,2017-09-10T18:00:00Z,26.4645,-82.1044,8.18,1111122 
SCCF RECON,ioos:station:SCCF:56:1,2017-09-10T19:00:00Z,26.4645,-82.1044,8.73,1111122 
SCCF RECON,ioos:station:SCCF:56:1,2017-09-10T20:00:00Z,26.4645,-82.1044,8.31,1111122 
SCCF RECON,ioos:station:SCCF:56:1,2017-09-10T21:00:00Z,26.4645,-82.1044,8.17,1111122 
SCCF RECON,ioos:station:SCCF:56:1,2017-09-10T22:00:00Z,26.4645,-82.1044,7.71,1111122 
SCCF RECON,ioos:station:SCCF:56:1,2017-09-10T23:00:00Z,26.4645,-82.1044,7.9,1111122 
SCCF RECON,ioos:station:SCCF:56:1,2017-09-11T00:00:00Z,26.4645,-82.1044,12.78,1111122 
SCCF RECON,ioos:station:SCCF:56:1,2017-09-11T01:00:00Z,26.4645,-82.1044,13.51,1111122 
SCCF RECON,ioos:station:SCCF:56:1,2017-09-11T02:00:00Z,26.4645,-82.1044,12.47,1111122 
SCCF RECON,ioos:station:SCCF:56:1,2017-09-11T03:00:00Z,26.4645,-82.1044,12.54,1111122 
SCCF RECON,ioos:station:SCCF:56:1,2017-09-11T04:00:00Z,26.4645,-82.1044,8.58,1111122 
SCCF RECON,ioos:station:SCCF:56:1,2017-09-11T05:00:00Z,26.4645,-82.1044,8.42,1111122 
SCCF RECON,ioos:station:SCCF:56:1,2017-09-11T06:00:00Z,26.4645,-82.1044,7.8,1111122 
SCCF RECON,ioos:station:SCCF:56:1,2017-09-11T07:00:00Z,26.4645,-82.1044,7.85,1111122 
SCCF RECON,ioos:station:SCCF:56:1,2017-09-11T08:00:00Z,26.4645,-82.1044,7.49,1111122 
SCCF RECON,ioos:station:SCCF:56:1,2017-09-11T09:00:00Z,26.4645,-82.1044,7.67,1111122 
SCCF RECON,ioos:station:SCCF:56:1,2017-09-11T10:00:00Z,26.4645,-82.1044,6.76,1111122 
SCCF RECON,ioos:station:SCCF:56:1,2017-09-11T11:00:00Z,26.4645,-82.1044,6.99,1111122 
SCCF RECON,ioos:station:SCCF:56:1,2017-09-11T12:00:00Z,26.4645,-82.1044,5.92,1111122 
SCCF RECON,ioos:station:SCCF:56:1,2017-09-11T13:00:00Z,26.4645,-82.1044,6.45,1111122 
SCCF RECON,ioos:station:SCCF:56:1,2017-09-11T14:00:00Z,26.4645,-82.1044,5.59,1111122 
SCCF RECON,ioos:station:SCCF:56:1,2017-09-11T15:00:00Z,26.4645,-82.1044,5.6,1111122 
SCCF RECON,ioos:station:SCCF:56:1,2017-09-11T16:00:00Z,26.4645,-82.1044,5.15,1111122 
SCCF RECON,ioos:station:SCCF:56:1,2017-09-11T17:00:00Z,26.4645,-82.1044,4.88,1111122 
SCCF RECON,ioos:station:SCCF:56:1,2017-09-11T18:00:00Z,26.4645,-82.1044,6.56,1111122 
SCCF RECON,ioos:station:SCCF:56:1,2017-09-11T19:00:00Z,26.4645,-82.1044,6.92,1111122 
SCCF RECON,ioos:station:SCCF:56:1,2017-09-11T20:00:00Z,26.4645,-82.1044,7.49,1111122 
SCCF RECON,ioos:station:SCCF:56:1,2017-09-11T21:00:00Z,26.4645,-82.1044,7.47,1111122 
SCCF RECON,ioos:station:SCCF:56:1,2017-09-11T22:00:00Z,26.4645,-82.1044,7.8,1111122 
SCCF RECON,ioos:station:SCCF:56:1,2017-09-11T23:00:00Z,26.4645,-82.1044,7.3,1111122 
SCCF RECON,ioos:station:SCCF:56:1,2017-09-12T00:00:00Z,26.4645,-82.1044,7.93,1111122 
SCCF RECON,ioos:station:SCCF:56:1,2017-09-12T01:00:00Z,26.4645,-82.1044,7.76,1111122 
SCCF RECON,ioos:station:SCCF:56:1,2017-09-12T02:00:00Z,26.4645,-82.1044,7.16,1111122 
SCCF RECON,ioos:station:SCCF:56:1,2017-09-12T03:00:00Z,26.4645,-82.1044,5.59,1111122 
SCCF RECON,ioos:station:SCCF:56:1,2017-09-12T04:00:00Z,26.4645,-82.1044,5.52,1111122 
SCCF RECON,ioos:station:SCCF:56:1,2017-09-12T05:00:00Z,26.4645,-82.1044,5.16,1111122 
SCCF RECON,ioos:station:SCCF:56:1,2017-09-12T06:00:00Z,26.4645,-82.1044,5.7,1111122 
SCCF RECON,ioos:station:SCCF:56:1,2017-09-12T07:00:00Z,26.4645,-82.1044,6.51,1111122 
SCCF RECON,ioos:station:SCCF:56:1,2017-09-12T08:00:00Z,26.4645,-82.1044,6.65,1111122 
SCCF RECON,ioos:station:SCCF:56:1,2017-09-12T09:00:00Z,26.4645,-82.1044,7.62,1111122 
SCCF RECON,ioos:station:SCCF:56:1,2017-09-12T10:00:00Z,26.4645,-82.1044,6.52,1111122 
SCCF RECON,ioos:station:SCCF:56:1,2017-09-12T11:00:00Z,26.4645,-82.1044,7.17,1111122 
SCCF RECON,ioos:station:SCCF:56:1,2017-09-12T12:00:00Z,26.4645,-82.1044,5.54,1111122 
SCCF RECON,ioos:station:SCCF:56:1,2017-09-12T13:00:00Z,26.4645,-82.1044,4.92,1111122 